VK2HAR Weather Reports


time (UTC)temp
C
wind
direction
speed
KPH
gust
KPH
rain 1hr
cm
rain 24hr
cm
rain mn
cm
humidity
%
barometer
mb
20260504174504 12 96 0.0 3.2 0.00 0.51 0.00 95 1016.5
20260504173603 13 96 0.0 3.2 0.00 0.51 0.00 95 1016.6
20260504172703 13 0 0.0 0.0 0.00 0.51 0.00 95 1016.5
20260504171804 13 0 0.0 0.0 0.00 0.51 0.00 95 1016.4
20260504170903 13 96 0.0 3.2 0.00 0.51 0.00 94 1016.4
20260504160217 16 0 0.0 0.0 0.00 0.51 0.00 96 1016.5
20260504150906 16 98 1.6 3.2 0.00 0.51 0.00 96 1016.1
20260504141117 17 98 0.0 3.2 0.00 0.51 0.00 95 1016.2
20260504120216 17 207 3.2 6.4 0.00 0.48 0.48 92 1016.2
20260504081803 18 57 3.2 6.4 0.00 0.48 0.48 87 1014.7
20260504080903 18 57 1.6 4.8 0.00 0.48 0.48 87 1014.5
20260504070218 19 58 6.4 9.7 0.00 0.48 0.48 86 1014.4
20260504050003 18 46 3.2 8.0 0.00 0.48 0.48 93 1014.3
20260504045403 18 44 3.2 8.0 0.00 0.48 0.48 93 1014.2
20260504044504 18 40 3.2 8.0 0.00 0.48 0.48 95 1014.3
20260504043603 18 40 1.6 4.8 0.00 0.48 0.48 95 1014.4
20260504042703 18 40 1.6 6.4 0.00 0.48 0.48 95 1014.3
20260504041803 17 40 1.6 4.8 0.00 0.48 0.48 96 1014.5
20260504040903 17 40 3.2 8.0 0.00 0.48 0.48 96 1014.5
20260504040003 17 47 6.4 9.7 0.00 0.48 0.48 96 1014.5
20260504035403 17 55 4.8 6.4 0.00 0.48 0.48 96 1014.5
20260504034503 17 51 4.8 8.0 0.00 0.48 0.48 96 1014.8
20260504033603 17 46 4.8 8.0 0.00 0.48 0.48 96 1015.0
20260504032703 17 43 3.2 8.0 0.00 0.48 0.48 97 1015.0
20260504031803 17 82 3.2 8.0 0.00 0.48 0.48 97 1015.2
20260504030903 16 90 3.2 6.4 0.00 0.48 0.48 97 1015.2
20260504030003 16 90 3.2 6.4 0.00 0.48 0.48 96 1015.5
20260504025403 16 90 1.6 6.4 0.03 0.48 0.48 97 1015.8
20260504024503 16 90 3.2 6.4 0.05 0.48 0.48 96 1015.8
20260504023603 16 90 1.6 4.8 0.15 0.48 0.48 96 1016.0
20260504022703 16 90 1.6 6.4 0.15 0.48 0.48 96 1016.2
20260504021803 16 90 3.2 4.8 0.15 0.48 0.48 96 1016.4
20260504020903 16 90 3.2 6.4 0.15 0.48 0.48 96 1016.7
20260504020003 16 90 3.2 6.4 0.18 0.48 0.48 96 1016.9
20260504015615 16 90 3.2 6.4 0.15 0.46 0.46 96 1016.9
20260504014503 16 91 3.2 6.4 0.15 0.43 0.43 96 1017.2
20260504013603 16 91 3.2 6.4 0.13 0.33 0.33 96 1017.2
20260504012704 16 90 3.2 6.4 0.10 0.33 0.33 96 1017.2
20260504011803 16 90 3.2 6.4 0.10 0.33 0.33 96 1017.3
20260504010903 16 90 1.6 4.8 0.13 0.33 0.33 96 1017.6
20260504010003 16 89 3.2 6.4 0.10 0.30 0.30 96 1017.7
20260504005403 16 96 4.8 9.7 0.08 0.28 0.28 95 1017.5
20260504004503 16 110 1.6 4.8 0.08 0.25 0.25 96 1017.7
20260504003604 16 110 0.0 1.6 0.05 0.23 0.23 96 1017.8
20260504002917 16 0 0.0 0.0 0.05 0.23 0.23 96 1017.6
20260504002016 16 0 0.0 0.0 0.05 0.23 0.23 96 1017.5
20260504001116 16 0 0.0 0.0 0.05 0.20 0.20 96 1017.4
20260504000003 16 0 0.0 0.0 0.05 0.20 0.20 96 1017.3
20260503235619 16 110 0.0 1.6 0.05 0.20 0.20 96 1017.4
20260503234503 16 0 0.0 0.0 0.08 0.18 0.18 96 1017.6
20260503233603 16 110 0.0 3.2 0.13 0.18 0.18 95 1017.4
20260503232704 16 110 1.6 3.2 0.15 0.15 0.15 95 1017.4
20260503232016 16 110 0.0 3.2 0.15 0.15 0.15 95 1017.4
20260503230903 15 110 1.6 4.8 0.15 0.15 0.15 95 1017.7
20260503230219 15 110 0.0 3.2 0.15 0.15 0.15 95 1017.8
20260503225619 15 110 0.0 1.6 0.15 0.15 0.15 95 1017.7
20260503224504 15 110 0.0 3.2 0.10 0.10 0.10 95 1017.7
20260503223603 15 110 1.6 6.4 0.05 0.05 0.05 95 1017.8
20260503222916 15 110 0.0 3.2 0.03 0.03 0.05 95 1017.5
20260503222016 15 110 0.0 1.6 0.00 0.00 0.00 95 1017.3
20260503220904 15 110 0.0 3.2 0.00 0.00 0.00 95 1017.1
20260503220003 15 110 1.6 4.8 0.00 0.00 0.00 95 1016.9
20260503215403 15 0 0.0 0.0 0.00 0.00 0.00 95 1016.9
20260503214503 15 0 0.0 0.0 0.00 0.00 0.00 95 1016.7
20260503213817 15 0 0.0 0.0 0.00 0.00 0.00 95 1016.8
20260503212703 15 110 0.0 1.6 0.00 0.00 0.00 95 1016.7
20260503211803 14 0 0.0 0.0 0.00 0.00 0.00 95 1016.7
20260503210903 14 343 1.6 4.8 0.00 0.00 0.00 95 1016.6
20260503210218 14 343 1.6 4.8 0.00 0.00 0.00 95 1016.6
20260503205403 14 0 0.0 0.0 0.00 0.00 0.00 95 1016.3
20260503204717 14 0 0.0 0.0 0.00 0.00 0.00 95 1016.3
20260503202704 14 343 0.0 1.6 0.00 0.00 0.00 95 1016.3
20260503201803 14 343 0.0 1.6 0.00 0.00 0.00 95 1016.2
20260503201119 14 343 0.0 1.6 0.00 0.00 0.00 95 1016.2
20260503200004 14 0 0.0 0.0 0.00 0.00 0.00 95 1016.1
20260503195617 14 0 0.0 0.0 0.00 0.00 0.00 94 1016.1
20260503194717 14 0 0.0 0.0 0.00 0.00 0.00 94 1016.0
20260503193816 14 0 0.0 0.0 0.00 0.00 0.00 94 1015.8
20260503192703 14 0 0.0 0.0 0.00 0.00 0.00 95 1015.8
20260503191803 14 0 0.0 0.0 0.00 0.00 0.00 95 1015.7
20260503190903 14 0 0.0 0.0 0.00 0.00 0.00 95 1015.8
20260503190003 14 0 0.0 0.0 0.00 0.00 0.00 95 1015.7
20260503185403 14 0 0.0 0.0 0.00 0.00 0.00 95 1015.7
20260503184503 13 0 0.0 0.0 0.00 0.00 0.00 94 1015.9
20260503183820 13 0 0.0 0.0 0.00 0.00 0.00 94 1015.7
20260503182703 13 0 0.0 0.0 0.00 0.00 0.00 95 1015.7
20260503181803 13 0 0.0 0.0 0.00 0.00 0.00 95 1015.7
20260503180904 13 0 0.0 0.0 0.00 0.00 0.00 95 1015.7
20260503180004 13 0 0.0 0.0 0.00 0.00 0.00 94 1015.8
20260503175403 13 0 0.0 0.0 0.00 0.00 0.00 94 1015.8